Location: Bern�tre
(50.1974°N, 2.0915°E)
Time: 09:18:25
(UTC+00:00)

ATLAS 3B R/B - Pass Details

Date: 18 September 2020
Orbit: 1016 x 1179 km, 63.8° (Epoch: 04 October)

Event Time Altitude Azimuth Distance (km) Brightness Sun altitude
Rises 21:20:30 0° 317° (NW) 3,823 6.8 -29.8°
Reaches altitude 10° 21:23:06 10° 317° (NW) 2,886 5.9 -30.1°
Maximum altitude 21:29:57 87° 228° (SW) 1,096 2.6 -30.8°
Enters shadow 21:30:03 87° 192° (SSW) 1,097 2.6 -30.8°
